Location: Azul
(36.7830°S, 59.8500°W)
Time: 01:16:25
(UTC-03:00)

STARS - Pass Details

Date: 01 November 2021
Orbit: 623 x 638 km, 98.2° (Epoch: 30 November)

Event Time Altitude Azimuth Distance (km) Brightness Sun altitude
Exits shadow 21:14:44 15° 117° (ESE) 1,699 ? -18.9°
Drops below altitude 10° 21:17:05 10° 150° (SSE) 2,027 ? -19.3°
Sets 21:20:05 0° 172° (S) 2,943 ? -19.7°
